• In Hungary
  • List of Countries
  • For 7 days
  • Water Temperature
  • Satellite Maps
  • Weather Map
  • News
  • Weather Widgets
  • user-avatar
    Login

    Hourly Weather Pontal do Parana

    Today, 14 November, Wednesday

    Time Temperature Precipitation Wind Pressure Humidity
    00:00 +27°C° 0 mm 2 mps 757 mmHg 98%
    01:00 +27°C° 0 mm 2 mps 756 mmHg 97%
    02:00 +27°C° 0 mm 2 mps 756 mmHg 97%
    03:00 +27°C° 0 mm 2 mps 756 mmHg 96%
    04:00 +27°C° 0 mm 2 mps 756 mmHg 95%
    05:00 +27°C° 0 mm 1 mps 755 mmHg 94%
    06:00 +27°C° 0 mm 1 mps 755 mmHg 93%
    07:00 +29°C° 0.4 mm 1 mps 755 mmHg 89%
    08:00 +31°C° 0.4 mm 1 mps 755 mmHg 85%
    09:00 +32°C° 0.4 mm 1 mps 755 mmHg 82%
    10:00 +33°C° 0.3 mm 1 mps 755 mmHg 80%
    11:00 +34°C° 0.3 mm 1 mps 755 mmHg 77%
    12:00 +35°C° 0.3 mm 1 mps 755 mmHg 75%
    13:00 +35°C° 0.5 mm 2 mps 754 mmHg 75%
    14:00 +35°C° 0.5 mm 2 mps 754 mmHg 76%
    15:00 +35°C° 0.5 mm 2 mps 754 mmHg 76%
    16:00 +32°C° 0.7 mm 2 mps 754 mmHg 82%
    17:00 +31°C° 0.7 mm 2 mps 754 mmHg 87%
    18:00 +29°C° 0.7 mm 2 mps 754 mmHg 93%
    19:00 +29°C° 0.2 mm 2 mps 755 mmHg 94%
    20:00 +28°C° 0.2 mm 2 mps 755 mmHg 95%
    21:00 +28°C° 0.2 mm 2 mps 756 mmHg 96%
    22:00 +28°C° 0.1 mm 2 mps 755 mmHg 96%
    23:00 +27°C° 0.1 mm 2 mps 755 mmHg 96%

    Tomorrow, 15 November, Thursday

    Time Temperature Precipitation Wind Pressure Humidity
    00:00 +27°C° 0.1 mm 2 mps 755 mmHg 96%
    01:00 +27°C° 0.8 mm 2 mps 755 mmHg 97%
    02:00 +27°C° 0.8 mm 1 mps 755 mmHg 97%
    03:00 +26°C° 0.8 mm 1 mps 755 mmHg 98%
    04:00 +26°C° 0.9 mm 2 mps 755 mmHg 98%
    05:00 +26°C° 0.9 mm 3 mps 756 mmHg 98%
    06:00 +26°C° 0.9 mm 4 mps 756 mmHg 99%
    07:00 +26°C° 0.1 mm 4 mps 757 mmHg 98%
    08:00 +25°C° 0.1 mm 4 mps 758 mmHg 97%
    09:00 +24°C° 0.1 mm 3 mps 758 mmHg 96%
    10:00 +26°C° 0 mm 3 mps 758 mmHg 88%
    11:00 +27°C° 0 mm 3 mps 758 mmHg 79%
    12:00 +28°C° 0 mm 3 mps 758 mmHg 70%
    13:00 +28°C° 0 mm 3 mps 758 mmHg 70%
    14:00 +28°C° 0 mm 3 mps 758 mmHg 69%
    15:00 +28°C° 0 mm 3 mps 757 mmHg 68%
    16:00 +27°C° 0 mm 3 mps 758 mmHg 71%
    17:00 +27°C° 0 mm 2 mps 758 mmHg 73%
    18:00 +26°C° 0 mm 2 mps 758 mmHg 76%
    19:00 +24°C° 0 mm 2 mps 759 mmHg 81%
    20:00 +23°C° 0 mm 1 mps 760 mmHg 87%
    21:00 +22°C° 0 mm 1 mps 760 mmHg 92%
    22:00 +22°C° 0 mm 1 mps 761 mmHg 94%
    23:00 +21°C° 0 mm 1 mps 761 mmHg 95%

    Day after tomorrow, 16 November, Friday

    Time Temperature Precipitation Wind Pressure Humidity
    00:00 +21°C° 0 mm 1 mps 761 mmHg 96%
    01:00 +21°C° 0 mm 1 mps 761 mmHg 96%
    02:00 +21°C° 0 mm 1 mps 761 mmHg 97%
    03:00 +20°C° 0 mm 2 mps 760 mmHg 98%
    04:00 +20°C° 0 mm 2 mps 761 mmHg 97%
    05:00 +21°C° 0 mm 2 mps 761 mmHg 97%
    06:00 +21°C° 0 mm 2 mps 761 mmHg 96%
    07:00 +23°C° 0 mm 2 mps 762 mmHg 90%
    08:00 +25°C° 0 mm 2 mps 762 mmHg 84%
    09:00 +26°C° 0 mm 2 mps 762 mmHg 78%
    10:00 +28°C° 0 mm 2 mps 762 mmHg 73%
    11:00 +29°C° 0 mm 2 mps 762 mmHg 68%
    12:00 +30°C° 0 mm 3 mps 762 mmHg 63%
    13:00 +30°C° 0 mm 3 mps 762 mmHg 65%
    14:00 +30°C° 0 mm 3 mps 761 mmHg 66%
    15:00 +30°C° 0 mm 3 mps 761 mmHg 67%
    16:00 +28°C° 0 mm 3 mps 761 mmHg 74%
    17:00 +27°C° 0 mm 3 mps 761 mmHg 80%
    18:00 +25°C° 0 mm 3 mps 762 mmHg 87%
    19:00 +24°C° 0 mm 2 mps 762 mmHg 90%
    20:00 +24°C° 0 mm 2 mps 763 mmHg 93%
    21:00 +23°C° 0 mm 2 mps 764 mmHg 96%
    22:00 +21°C° 0.1 mm 2 mps 764 mmHg 96%
    23:00 +21°C° 0.1 mm 2 mps 764 mmHg 97%

    17 November, Saturday

    Time Temperature Precipitation Wind Pressure Humidity
    00:00 +21°C° 0.1 mm 2 mps 764 mmHg 98%
    01:00 +21°C° 0.1 mm 2 mps 763 mmHg 98%
    02:00 +20°C° 0.1 mm 2 mps 763 mmHg 98%
    03:00 +20°C° 0.1 mm 2 mps 762 mmHg 98%
    04:00 +20°C° 0 mm 2 mps 762 mmHg 98%
    05:00 +20°C° 0 mm 2 mps 763 mmHg 98%
    06:00 +20°C° 0 mm 2 mps 763 mmHg 97%
    07:00 +23°C° 0 mm 2 mps 763 mmHg 89%
    08:00 +25°C° 0 mm 2 mps 763 mmHg 81%
    09:00 +26°C° 0 mm 2 mps 763 mmHg 73%
    10:00 +28°C° 0 mm 2 mps 763 mmHg 68%
    11:00 +29°C° 0 mm 2 mps 762 mmHg 64%
    12:00 +31°C° 0 mm 3 mps 762 mmHg 60%
    13:00 +31°C° 0 mm 3 mps 761 mmHg 60%
    14:00 +31°C° 0 mm 3 mps 760 mmHg 61%
    15:00 +33°C° 0 mm 4 mps 760 mmHg 61%
    16:00 +30°C° 0 mm 4 mps 759 mmHg 68%
    17:00 +29°C° 0 mm 4 mps 759 mmHg 76%
    18:00 +27°C° 0 mm 4 mps 759 mmHg 83%
    19:00 +26°C° 0 mm 3 mps 759 mmHg 88%
    20:00 +25°C° 0 mm 3 mps 760 mmHg 93%
    21:00 +24°C° 0 mm 3 mps 760 mmHg 98%
    22:00 +24°C° 0 mm 3 mps 760 mmHg 98%
    23:00 +24°C° 0 mm 3 mps 759 mmHg 98%

    18 November, Sunday

    Time Temperature Precipitation Wind Pressure Humidity
    00:00 +24°C° 0 mm 2 mps 759 mmHg 98%
    01:00 +24°C° 0 mm 2 mps 758 mmHg 98%
    02:00 +24°C° 0 mm 2 mps 757 mmHg 98%
    03:00 +24°C° 0 mm 2 mps 757 mmHg 98%
    04:00 +25°C° 0 mm 2 mps 757 mmHg 97%
    05:00 +25°C° 0 mm 2 mps 756 mmHg 95%
    06:00 +25°C° 0 mm 2 mps 756 mmHg 93%
    07:00 +27°C° 0 mm 2 mps 756 mmHg 85%
    08:00 +29°C° 0 mm 2 mps 756 mmHg 76%
    09:00 +31°C° 0 mm 3 mps 756 mmHg 67%
    10:00 +31°C° 0 mm 3 mps 755 mmHg 66%
    11:00 +33°C° 0 mm 3 mps 755 mmHg 64%
    12:00 +34°C° 0 mm 4 mps 754 mmHg 63%
    13:00 +34°C° 0 mm 4 mps 754 mmHg 61%
    14:00 +35°C° 0 mm 4 mps 754 mmHg 60%
    15:00 +35°C° 0 mm 4 mps 753 mmHg 59%
    16:00 +33°C° 0.5 mm 4 mps 753 mmHg 70%
    17:00 +30°C° 0.5 mm 3 mps 754 mmHg 81%
    18:00 +28°C° 0.5 mm 3 mps 754 mmHg 92%
    19:00 +27°C° 3.4 mm 3 mps 755 mmHg 94%
    20:00 +26°C° 3.4 mm 4 mps 756 mmHg 95%
    21:00 +26°C° 3.4 mm 4 mps 756 mmHg 97%
    22:00 +25°C° 0.5 mm 5 mps 757 mmHg 97%
    23:00 +24°C° 0.5 mm 6 mps 757 mmHg 98%

    19 November, Monday

    Time Temperature Precipitation Wind Pressure Humidity
    00:00 +23°C° 0.5 mm 7 mps 757 mmHg 99%
    01:00 +22°C° 0.4 mm 6 mps 758 mmHg 99%
    02:00 +22°C° 0.4 mm 6 mps 758 mmHg 99%
    03:00 +21°C° 0.4 mm 6 mps 758 mmHg 98%
    04:00 +20°C° 0.1 mm 6 mps 758 mmHg 98%
    05:00 +19°C° 0.1 mm 6 mps 759 mmHg 97%
    06:00 +19°C° 0.1 mm 6 mps 760 mmHg 97%
    07:00 +20°C° 0.1 mm 5 mps 761 mmHg 89%
    08:00 +21°C° 0.1 mm 5 mps 761 mmHg 82%
    09:00 +22°C° 0.1 mm 4 mps 762 mmHg 75%
    10:00 +22°C° 0.1 mm 4 mps 762 mmHg 74%
    11:00 +23°C° 0.1 mm 4 mps 762 mmHg 73%
    12:00 +23°C° 0.1 mm 4 mps 762 mmHg 73%
    13:00 +23°C° 0.1 mm 4 mps 761 mmHg 76%
    14:00 +22°C° 0.1 mm 4 mps 761 mmHg 80%
    15:00 +22°C° 0.1 mm 3 mps 761 mmHg 83%
    16:00 +21°C° 0.1 mm 3 mps 761 mmHg 86%
    17:00 +21°C° 0.1 mm 3 mps 761 mmHg 89%
    18:00 +20°C° 0.1 mm 3 mps 761 mmHg 92%
    19:00 +20°C° 0.1 mm 3 mps 762 mmHg 94%
    20:00 +20°C° 0.1 mm 2 mps 762 mmHg 95%
    21:00 +19°C° 0.1 mm 2 mps 763 mmHg 97%
    22:00 +19°C° 0.1 mm 2 mps 763 mmHg 97%
    23:00 +19°C° 0.1 mm 2 mps 763 mmHg 97%
    Show more